THORAD AGENA D DEB

Satellite information

Favourite Embed

Satellite Type and Status

DEBRISIN ORBIT

Key statistics

Satellite THORAD AGENA D DEB at a glance.

Uptime

20339

Days in orbit

Revolutions

≈ 13.8

Per day

Orbit

SSO

Sun Synchronous Orbit

Inclination

100.1

Latest

Satellite identification and parameters

Extended collection of information and parameters for THORAD AGENA D DEB.

Object identification

Identified? True

Debris? True

Object name: THORAD AGENA D DEB

International designator: 1970-025DH

Object number (NORAD): 4759

Object ID (CCSDS): 4759

Country: UNITED STATES OF AMERICA (US)

Current information (Y/N): Y

RCS size: SMALL

Orbital parameters

Period: 104.674 minutes

Inclination: 100.0504 deg

SMA: 7357.326 km

Apoapsis: 980.954 km

Periapsis: 977.428 km

RAAN: 341.2933 deg

Eccentricy: 0.00023965

Argument of periapsis: 16.228 deg

Mean anomaly: 103.0134 deg

Mean motion: 13.75696961 rev/day

Mean motion (dot): 0.0000104 rev/day2

B* drag term: 0.001127922 1/REarth

Two-line elements (TLE)

Creation date: Dec. 14, 2025, 3:07 a.m.

Reference frame: TEME

Reference center: EARTH

Epoch: Dec. 13, 2025, 12:57 p.m. UTC

TLE line 0: 0 THORAD AGENA D DEB

TLE line 1: 1 04759U 70025DH 25347.54020574 .00001040 00000-0 11279-2 0 9994

TLE line 2: 2 04759 100.0504 341.2933 0002397 16.2280 103.0134 13.75696961769391

Live tracking on map

Real-time ground track for satellite THORAD AGENA D DEB.

In-orbit conjunctions

A list of the most updated potential collisions computed for object THORAD AGENA D DEB.

Target Orbit TCA Probability of collision Miss distance Type
THORAD AGENA D DEB SSO 2025-06-20 00:57:32 0.0002661189 79.0 (m) DEBRIS
COSMOS 1375 DEB LEO 2025-06-03 12:58:30 0.001060712 45.0 (m) DEBRIS
FENGYUN 1C DEB SSO 2024-09-24 18:51:07 0.002473578 147.0 (m) DEBRIS

Associated space launch

Meteorological research and development satellite

THORAD AGENA D DEB was lifted into orbit during the mission ‘Thorad SLV-2G Agena D | Nimbus 4’, on board a Thorad SLV-2G Agena D space rocket.

The launch took place on April 8, 1970, 8:17 a.m. from Space Launch Complex 2E.

For more information about the launch, click the button.

Launch to space Thorad SLV-2G Agena D | Nimbus 4
Thorad SLV-2G Agena D | Nimbus 4

Agency: N/A

Status: Launch Successful

Launch date: April 8, 1970, 8:17 a.m. UTC

Rocket: Thorad SLV-2G Agena D

Launch pad: Space Launch Complex 2E

Location: Vandenberg SFB, CA, USA

...

Latest news about this satellite

There are no fresh news available about this satellite. Check back as we update our databases every day.


Newsletter sign-up

Weekly statistics, charts and insights to help you stay on top of the space industry.